#timestamp,LO_Frequency,Hit,StdDev 
1589626815.8,286047002.2,N
1589626835.6,286047001.9,N
1589626855.5,286047000.4,N
1589626875.3,286046998.5,N
1589626895.1,286046998.5,N
1589626915.9,286046999.5,N
1589626935.7,286046999.4,N
1589626955.5,286046996.9,N
1589626975.4,286046999.2,N
1589626995.2,286046999.2,N
1589627015.1,286046997.7,N
1589627016.0,286046997.7,N
1589627035.8,286046997.8,N
1589627055.6,286046995.5,N
1589627075.5,286046996.0,N
1589627095.3,286046996.3,N
1589627115.1,286046994.6,N
1589627135.9,286046994.8,N
1589627155.7,286046992.2,N
1589627175.6,286046994.8,N
1589627195.4,286046991.8,N
1589627215.2,286046992.0,N
1589627235.1,286046993.0,N
1589627236.0,286046993.0,N
1589627255.8,286046991.8,N
1589627275.6,286046994.3,N
1589627295.5,286046993.8,N
1589627315.3,286046993.7,N
1589627335.2,286046993.5,N
1589627355.9,286046994.8,N
1589627375.7,286046991.9,N
1589627395.6,286046994.3,N
1589627415.4,286046992.9,N
1589627435.2,286046992.3,Y
1589627455.1,286046996.9,P
1589627456.0,286046996.9,P
1589627475.8,286046999.4,N
1589627495.7,286047001.1,N
1589627515.5,286046999.1,N
1589627535.3,286046997.2,N
1589627555.2,286046998.8,N
1589627575.0,286047001.2,N
1589627575.9,286047001.2,N
1589627595.8,286047000.4,N
1589627615.6,286047000.7,N
1589627635.4,286046998.1,N
1589627655.3,286046998.6,N
1589627675.1,286046998.9,N
1589627676.0,286046998.9,N
1589627695.8,286046996.6,N
1589627715.7,286046996.8,N
1589627735.5,286046997.3,N
1589627755.3,286046998.0,N
1589627775.2,286046995.1,N
1589627795.0,286046996.0,N
1589627795.9,286046996.0,N
1589627815.8,286046993.3,Y
1589627835.6,286046995.0,P
1589627855.4,286046995.0,P
1589627875.3,286046994.9,P
1589627895.1,286046996.9,N
1589627915.8,286046998.8,N
1589627935.7,286047002.7,N
1589627955.5,286047002.3,N
1589627975.4,286047002.6,N
1589627995.2,286046999.7,N
1589628015.0,286047003.7,N
1589628015.9,286047003.7,N
1589628035.8,286047003.7,N
1589628055.6,286046999.8,N
1589628075.4,286047001.4,N
1589628095.3,286047001.4,N
1589628115.1,286047001.8,N
1589628135.9,286047002.1,N
1589628155.7,286047004.3,N
1589628175.5,286047003.8,N
1589628195.4,286047001.5,N
1589628215.2,286046999.8,N
1589628235.0,286047000.7,N
1589628235.9,286047000.7,N
1589628255.8,286047000.9,N
1589628275.6,286046998.1,N
1589628295.5,286046998.2,N
1589628315.3,286047000.1,N
1589628335.1,286047003.9,N
1589628355.9,286047004.3,N
1589628375.7,286047003.6,N
1589628395.5,286047003.3,N
1589628415.4,286047003.3,N
1589628435.2,286047003.6,N
1589628455.1,286047003.4,N
1589628456.0,286047003.4,N
1589628475.8,286047003.3,N
1589628495.6,286047003.8,N
1589628515.5,286047001.3,N
1589628535.3,286047003.6,N
1589628555.1,286047004.2,N
1589628575.9,286047003.2,N
1589628595.7,286047004.3,N
1589628615.6,286047001.7,N
1589628635.4,286047002.2,N
1589628655.2,286047000.3,N
1589628675.1,286046998.2,N
1589628676.0,286046998.2,N
1589628695.8,286046998.2,N
1589628715.6,286046999.5,N
1589628735.5,286046999.4,N
1589628755.3,286046998.9,N
1589628775.2,286046996.6,N
1589628795.9,286046997.0,N
1589628815.7,286046997.9,N
1589628835.6,286046995.4,N
1589628855.4,286046996.9,N
1589628875.3,286046996.9,N
1589628895.1,286046999.4,N
1589628896.0,286046999.4,N
1589628915.8,286046996.5,N
1589628935.7,286046997.1,N
1589628955.5,286046996.7,N
1589628975.3,286046997.6,N
1589628995.2,286046996.7,N
1589629015.0,286046997.3,N
1589629015.9,286046997.3,N
1589629035.8,286046998.0,N
1589629055.6,286046998.0,N
1589629075.4,286046995.4,N
1589629095.3,286046995.6,N
1589629115.1,286046995.4,N
1589629135.8,286046997.6,N
1589629155.7,286046998.0,N
1589629175.5,286046995.2,Y
1589629195.4,286046997.3,P
1589629215.2,286046998.3,P
1589629235.0,286046999.6,N
1589629235.9,286046999.6,N
1589629255.8,286046997.1,Y
1589629275.6,286046999.0,P
1589629295.5,286046999.5,N
1589629315.3,286046999.2,N
1589629335.1,286046997.7,Y
1589629355.9,286046999.5,P
1589629375.7,286046997.0,P
1589629395.5,286046996.6,P
1589629415.4,286046999.1,N
1589629435.2,286046997.1,N
1589629455.1,286046997.1,N
1589629456.0,286046997.1,N
1589629475.8,286046999.2,N
1589629495.6,286046999.2,N
1589629515.5,286046996.5,Y
1589629535.3,286046999.9,P
1589629555.1,286047002.6,N
1589629575.9,286046999.8,N
1589629595.7,286047002.4,N
1589629615.6,286047000.2,N
1589629635.4,286047000.4,N
1589629655.2,286047002.0,N
1589629675.1,286047000.6,N
1589629676.0,286047000.6,N
1589629695.8,286047000.2,N
1589629715.6,286047001.5,N
1589629735.5,286047001.9,N
1589629755.3,286047001.8,N
1589629775.2,286047000.1,N
1589629795.9,286047000.2,N
1589629815.7,286046999.7,N
1589629835.6,286047002.8,N
1589629855.4,286047002.5,N
1589629875.2,286047002.8,N
1589629895.1,286047002.4,N
1589629896.0,286047002.4,N
1589629915.8,286047000.1,N
1589629935.7,286047001.5,N
1589629955.5,286047002.4,N
1589629975.3,286047002.2,N
1589629995.2,286047002.1,N
1589630015.0,286046999.9,N
1589630015.9,286046999.9,N
1589630035.7,286046999.7,N
1589630055.6,286047002.4,N
1589630075.4,286047000.3,N
1589630095.3,286047002.1,N
1589630115.1,286046999.8,N
1589630116.0,286046999.8,N
1589630135.8,286047000.0,N
1589630155.7,286047000.2,N
1589630175.5,286047000.9,N
1589630195.3,286047000.9,N
1589630215.2,286047001.2,N
1589630235.0,286046998.9,N
1589630235.9,286046998.9,N
1589630255.8,286046998.7,N
1589630275.6,286046999.6,N
1589630295.4,286046997.1,N
1589630315.3,286046996.6,N
1589630335.1,286046996.6,N
1589630355.8,286046999.5,N
1589630375.7,286046996.6,N
1589630395.5,286046996.8,N
